Temperature
14 15 15 16 16 16 18 20 22 23 23 24 23 24 23 23 22 19 18 18 17 17 17 17 17 16 16 16 16 16 15 15 15 15 15 15 15 15 15 15 15 15 15 15 15 15 15 15 15
14 14 15 16 16 17 19 20 21 22 23 22 22 22 22 22 20 19 18 17 17 17 17 17 16 16 16 16 16 15 15 15 15 15 15 15 15 15 15 15 15 15 15 15 15 15 15 15 15
14 14 15 16 17 18 20 21 21 22 22 22 22 22 22 21 20 18 18 17 16 16 16 17 16 16 16 16 15 15 15 15 15 15 15 15 15 15 15 15 15 15 15 15 15 15 15 15 15
14 14 16 16 17 19 20 21 21 21 21 21 21 21 20 20 19 18 17 17 16 16 16 16 16 16 16 15 15 15 15 15 15 15 15 15 15 15 15 15 15 15 15 15 15 15 15 14 14
14 15 15 15 17 19 20 22 22 21 21 21 21 21 19 19 18 18 17 16 16 15 15 16 16 15 15 15 15 15 15 15 15 15 15 15 15 15 15 15 15 15 14 14 15 14 14 14 14
14 15 15 15 17 19 20 21 21 21 21 21 21 20 19 18 18 17 16 16 15 15 15 15 15 15 15 15 15 15 14 14 15 14 14 14 14 14 14 14 14 14 14 14 14 14 14 14 14
14 14 15 16 17 19 20 21 20 20 20 20 20 19 18 17 17 17 16 15 15 15 15 15 15 15 15 15 14 14 14 14 14 14 14 14 14 14 14 14 14 14 14 14 14 14 14 14 14
14 14 15 16 17 18 20 20 20 20 19 20 20 19 17 16 16 16 15 15 15 14 15 14 14 14 14 14 14 14 14 14 14 14 14 14 14 14 14 14 14 14 14 14 14 14 13 13 13
13 13 14 16 17 18 19 19 19 19 19 19 19 18 17 16 16 15 15 15 14 14 14 14 14 14 14 14 14 14 14 14 14 14 14 13 13 13 13 14 14 14 13 13 13 13 13 13 13
13 12 14 17 17 18 18 18 18 18 17 18 17 17 16 15 15 14 14 14 14 14 14 14 14 13 13 13 13 13 13 13 13 13 13 13 13 13 13 13 13 13 13 13 13 13 13 13 13
13 13 15 16 17 17 17 17 17 17 16 17 16 15 15 14 14 13 13 13 13 13 13 13 13 13 13 13 13 13 13 13 13 13 13 13 13 13 13 13 13 13 13 13 13 12 12 12 12
13 14 15 15 16 15 16 16 16 16 15 15 15 15 14 14 13 13 13 13 13 13 13 13 13 13 13 13 13 13 13 13 13 13 12 12 12 12 12 13 13 13 12 12 12 12 12 12 12
13 13 14 14 14 14 14 14 14 14 14 14 14 14 13 13 13 13 12 12 12 12 12 13 13 12 12 12 12 12 12 12 12 12 12 12 12 12 12 12 12 12 12 12 12 12 12 12 12
13 13 13 13 13 13 13 13 13 13 13 13 13 13 12 12 12 12 12 12 12 12 12 12 12 12 12 12 12 12 12 12 12 12 12 12 12 12 12 12 12 12 12 12 12 12 12 12 12
12 12 12 13 13 13 13 11 12 13 13 12 12 12 12 11 11 11 11 11 11 11 12 12 12 12 12 12 12 12 12 12 12 12 12 12 12 12 12 12 12 11 11 12 12 12 11 11 11
11 11 10 12 12 13 12 10 12 12 12 11 11 11 11 11 11 10 10 11 11 11 11 11 11 11 12 12 12 12 12 12 12 12 11 11 11 12 11 11 11 11 11 11 11 11 11 11 11
10 9 10 11 12 12 11 10 11 12 11 11 11 10 10 10 10 10 10 10 10 10 11 11 11 11 11 11 11 12 12 12 11 11 11 11 11 11 11 11 11 11 11 11 11 11 11 11 11
8 9 10 10 12 11 10 10 10 11 11 10 10 9 9 9 9 9 9 9 9 10 10 10 10 11 11 11 11 11 11 11 11 11 11 11 11 11 11 11 11 11 11 11 11 11 11 11 10
9 9 9 10 11 10 10 9 9 9 9 9 8 8 8 7 7 8 8 8 8 9 9 10 10 10 10 11 11 11 11 11 11 11 11 11 11 11 11 11 11 11 11 11 11 10 10 10 10
8 8 8 9 10 9 9 8 8 8 8 8 7 7 6 6 7 7 7 7 7 8 8 9 9 10 10 10 10 10 11 10 11 10 10 10 10 10 10 11 11 11 11 10 10 10 10 10 10
7 7 7 7 8 9 8 7 7 7 7 7 6 6 6 5 5 5 6 6 6 7 7 8 8 9 9 9 10 10 10 10 10 10 10 10 10 10 10 10 10 10 10 10 10 10 10 10 10
6 7 7 7 6 6 8 6 6 7 6 5 5 5 5 5 5 5 5 5 5 6 6 7 7 8 8 9 9 9 9 9 10 10 10 10 10 10 10 10 10 10 10 10 10 10 10 10 10
5 6 7 7 6 5 6 5 5 6 5 4 4 4 3 3 4 4 4 4 4 5 5 6 6 7 7 8 8 8 9 9 9 9 9 9 9 9 10 10 10 10 10 10 10 10 10 9 9
6 6 6 6 5 4 5 5 4 3 3 3 3 3 3 3 3 3 3 3 4 4 5 5 6 6 7 7 7 8 8 8 9 9 9 9 9 9 9 9 9 9 9 10 10 10 9 9 9
5 4 3 3 3 4 6 4 2 2 3 2 2 2 2 2 2 2 2 3 3 3 4 4 5 5 6 7 7 7 7 8 8 8 8 8 9 9 9 9 9 9 9 9 9 9 9 9 9
3 3 2 2 3 4 5 3 1 1 2 1 1 1 1 1 1 1 1 1 2 2 3 3 4 4 5 6 6 7 7 7 7 7 8 8 8 8 9 9 9 9 9 9 9 9 9 8 8
2 2 3 2 3 3 3 1 1 1 0 -0 -1 -1 -1 -0 -0 0 0 1 1 1 2 2 3 4 4 5 5 6 6 7 7 7 7 7 8 8 8 8 8 8 8 8 8 8 8 8 8
2 2 1 1 2 2 2 1 -0 -1 -1 -1 -2 -2 -2 -1 -1 -1 -0 -0 0 0 1 2 2 3 3 4 5 5 6 6 6 6 7 7 7 7 8 8 8 8 8 8 8 8 8 8 8
0 0 0 0 1 1 1 -0 -1 -2 -2 -3 -3 -3 -3 -2 -2 -2 -1 -1 -1 -0 0 1 1 2 3 3 4 4 5 5 6 6 6 7 7 7 7 7 7 7 7 7 7 7 8 7 7
-0 -1 -1 -1 -1 0 -0 -2 -1 -2 -3 -3 -3 -3 -3 -3 -3 -2 -2 -2 -1 -1 -0 -0 0 1 2 2 3 4 4 4 5 5 6 6 6 6 7 7 7 7 7 7 7 7 7 7 7
Wind_Speed
9 10 6 2 3 5 9 8 6 3 1 2 4 3 3 2 2 6 5 9 15 16 18 19 18 18 17 16 15 14 14 14 13 13 13 13 13 13 13 13 13 14 14 14 15 15 15 16 16
10 5 4 3 5 7 8 10 9 3 3 4 3 3 2 2 7 9 7 11 15 16 18 17 19 18 17 16 15 14 14 13 13 13 13 13 13 13 13 13 13 14 14 14 14 15 15 15 15
9 6 4 4 6 8 6 2 4 3 4 3 2 1 1 2 6 7 9 12 14 15 17 18 19 17 17 16 15 14 14 13 13 13 13 13 13 13 13 13 13 14 14 14 14 14 14 14 13
4 3 4 6 12 10 8 2 2 3 4 3 2 2 2 4 4 8 11 11 13 13 16 19 19 18 17 16 15 14 14 13 13 13 13 13 13 12 12 13 13 13 14 14 14 13 13 13 12
4 4 6 8 13 11 9 4 1 3 4 5 5 3 3 5 9 11 11 11 12 12 14 18 18 18 17 16 15 14 13 13 13 13 13 12 12 12 13 13 13 13 13 13 13 13 12 12 11
4 4 7 11 12 11 9 5 3 4 4 4 4 3 2 6 8 9 10 10 11 12 13 16 17 17 17 16 15 14 13 13 13 13 12 12 12 12 13 13 13 12 12 12 12 12 12 11 10
4 5 9 11 11 9 7 4 4 4 5 4 4 3 3 6 7 8 8 9 11 12 12 13 14 15 16 16 15 15 13 13 13 13 12 12 13 12 12 12 12 12 12 12 12 12 11 11 10
4 4 8 11 11 10 4 2 2 2 3 1 2 3 3 6 7 7 8 8 9 10 10 11 12 13 13 14 15 15 14 13 13 12 12 13 13 12 12 11 12 11 11 12 12 11 11 10 9
5 6 9 9 8 5 2 2 1 0 2 2 1 2 6 10 8 7 7 6 7 9 9 9 10 10 12 13 14 14 14 13 13 12 13 12 11 11 11 11 11 12 12 12 12 12 11 10 8
6 8 10 7 6 5 2 2 2 2 4 3 1 4 9 8 8 7 7 7 7 7 8 8 9 9 10 11 12 12 12 12 11 11 11 10 9 10 10 12 12 12 12 11 11 11 11 9 7
7 9 9 9 6 5 5 2 2 4 5 3 3 5 8 7 6 6 7 7 7 7 6 6 7 9 8 7 9 9 9 10 10 11 10 9 9 9 10 10 10 11 11 9 10 9 8 7 7
9 11 10 8 6 5 5 3 4 5 3 2 2 5 7 6 6 5 5 4 5 6 6 6 5 7 8 7 7 7 7 6 7 10 11 8 6 6 8 7 8 8 8 8 7 6 7 7 7
13 12 11 8 6 5 6 6 6 6 4 2 1 3 6 5 4 4 4 4 3 4 5 5 4 5 6 6 6 6 6 6 7 9 9 9 6 5 6 6 7 7 7 7 5 5 6 6 6
8 9 9 8 6 6 7 7 6 6 3 2 2 3 4 4 4 3 2 3 3 3 4 4 5 4 5 4 4 5 6 7 7 7 9 9 8 6 5 5 5 5 6 7 6 5 5 5 5
9 10 10 9 8 5 4 7 9 6 4 3 2 2 2 3 3 2 2 2 2 2 3 3 5 4 4 4 4 5 5 6 5 6 8 9 8 7 6 5 4 5 6 6 6 5 6 5 5
8 9 9 7 8 6 6 9 4 3 4 4 3 2 2 2 1 1 2 1 1 1 1 3 4 4 4 4 4 4 5 6 5 7 7 8 8 8 6 5 4 6 6 5 4 3 4 4 4
7 8 10 7 8 7 7 6 2 1 4 4 3 2 2 2 1 1 2 2 1 1 1 1 2 3 3 3 4 4 4 5 6 7 7 7 8 8 6 5 5 7 5 3 3 3 4 4 4
6 7 8 8 5 5 7 6 2 1 1 2 2 1 2 2 2 2 2 2 2 1 1 1 2 3 3 2 3 3 3 3 5 5 6 7 8 9 8 5 6 7 4 3 3 4 4 4 4
8 9 10 8 4 3 6 5 3 1 0 1 2 2 3 3 3 4 4 4 3 2 2 1 1 2 3 2 2 3 3 3 3 4 6 7 7 8 7 5 5 5 4 4 4 4 5 4 4
8 9 9 7 4 3 5 5 2 1 2 3 3 2 3 3 4 4 4 4 4 4 3 2 1 1 2 3 3 2 3 3 3 3 4 6 7 7 7 6 5 5 4 4 4 4 3 3 4
8 7 7 6 6 5 5 4 4 2 3 4 5 4 4 3 3 3 3 3 3 3 3 3 2 0 1 1 2 2 2 2 2 3 3 4 6 7 6 7 6 5 5 5 5 5 5 4 3
7 6 7 6 5 4 4 3 3 3 4 4 5 5 5 5 4 3 4 4 4 3 3 3 3 2 1 1 3 4 3 3 3 4 4 4 5 6 6 6 6 5 4 5 5 5 4 5 4
6 8 8 8 7 5 6 4 2 2 1 2 4 5 6 6 5 5 5 4 4 4 3 3 3 3 2 0 2 3 3 2 2 3 5 5 4 5 6 6 6 5 4 5 5 5 5 4 4
6 7 7 6 4 6 8 5 1 1 2 3 5 6 6 6 7 6 6 5 5 5 4 3 3 3 3 1 1 2 2 2 3 4 5 5 3 4 5 6 5 5 5 5 5 5 6 4 4
5 3 1 2 4 5 4 3 2 4 6 6 5 5 5 6 6 6 7 6 6 6 5 4 4 4 3 3 1 1 2 3 3 4 5 5 4 3 4 4 5 4 4 5 5 5 5 5 5
6 3 1 2 3 3 1 2 3 5 7 8 8 7 7 8 6 6 6 5 5 6 5 5 4 4 4 3 3 1 2 2 2 2 2 4 4 4 5 5 5 5 6 6 5 4 4 4 5
5 3 3 4 4 3 1 3 3 6 9 11 11 11 9 9 9 7 6 6 6 6 5 5 5 5 5 4 4 2 1 2 2 2 1 2 2 3 5 5 5 5 5 6 6 4 5 5 5
3 5 4 3 2 3 2 2 2 6 8 10 11 11 10 9 9 9 7 6 6 6 6 5 5 5 5 5 5 3 2 1 1 2 2 2 2 3 5 5 5 5 5 6 5 5 5 5 5
6 5 5 4 3 2 2 1 4 6 7 8 10 10 10 10 9 8 8 7 6 6 6 6 5 6 5 5 5 5 3 2 1 1 1 1 2 3 4 5 5 5 5 5 5 5 6 6 5
4 5 5 3 4 3 2 1 6 8 8 8 9 10 10 10 9 8 8 9 8 7 6 6 6 6 6 6 5 5 4 3 2 1 1 1 2 2 3 4 5 5 5 5 5 6 6 7 7
Wind_Direction
271 254 247 247 234 231 236 239 247 211 222 10 12 352 346 329 21 104 147 125 121 129 137 143 141 139 136 135 134 131 130 129 127 124 122 119 117 117 113 111 109 108 106 104 100 97 95 94 93
270 248 244 236 232 229 231 221 233 216 112 63 30 347 342 16 78 110 125 119 126 130 135 142 142 140 137 136 135 134 133 131 130 128 125 123 119 117 116 114 112 111 108 105 102 98 97 97 96
266 247 238 227 230 231 238 212 184 136 100 114 151 235 288 47 91 113 123 128 128 130 134 138 140 139 138 138 138 137 136 133 131 130 128 126 122 119 115 113 113 113 110 108 106 103 102 102 99
242 224 244 240 239 241 254 251 103 142 138 151 175 174 131 55 59 102 120 130 131 131 133 137 140 139 138 137 137 138 138 134 132 130 130 128 125 122 118 114 114 115 115 113 110 108 106 105 100
243 236 230 234 241 247 259 260 141 176 175 175 190 205 119 83 87 108 128 137 135 132 131 139 140 140 141 139 138 137 138 137 135 133 131 129 128 125 121 118 116 117 118 117 115 112 109 106 101
232 233 232 234 238 236 236 228 225 220 212 194 188 223 124 110 114 126 134 139 134 131 132 140 142 142 142 141 140 139 136 137 138 137 134 131 128 125 125 123 121 119 121 121 119 116 112 109 103
242 242 242 247 251 247 233 198 204 220 226 201 183 212 141 126 123 130 131 134 131 129 132 138 145 144 142 141 140 139 137 135 136 138 135 133 129 127 127 127 126 125 125 124 122 118 116 112 105
255 267 248 243 246 252 242 199 169 228 249 224 193 211 143 127 121 126 127 127 130 131 138 143 147 147 145 142 143 140 137 136 135 133 135 135 132 131 130 128 128 128 129 128 124 122 118 112 108
255 245 240 238 248 255 221 211 157 165 262 265 275 51 98 118 124 127 125 131 135 138 143 148 150 148 147 147 146 141 141 140 138 139 140 138 137 136 134 130 129 128 129 131 131 129 123 117 113
218 233 238 254 278 294 271 236 182 208 222 232 173 93 103 116 130 138 142 149 150 150 151 154 154 149 147 151 148 148 149 149 149 149 147 144 141 137 132 131 131 132 133 135 138 138 135 130 125
216 236 252 270 294 311 296 268 245 246 245 224 174 137 128 131 144 156 163 164 161 155 153 152 155 151 149 145 149 153 155 156 158 153 147 142 137 134 127 129 134 138 141 141 144 142 149 143 134
241 248 259 271 297 305 288 267 259 254 260 8 60 117 127 146 161 166 167 169 159 154 155 149 155 152 152 149 152 150 149 152 153 155 154 148 137 133 136 138 149 151 150 144 148 154 151 137 135
242 252 258 267 280 282 287 268 258 263 271 309 57 113 142 155 167 169 162 157 153 154 157 153 149 152 151 151 155 150 147 148 153 154 158 152 140 140 141 140 147 151 152 150 155 147 135 123 121
254 264 263 262 259 258 260 268 256 258 246 207 158 147 153 162 168 160 151 152 165 174 168 159 154 154 149 150 152 146 148 152 150 150 157 154 144 139 139 135 138 144 147 151 147 135 122 110 106
259 266 264 249 240 233 243 260 246 246 225 193 168 156 154 154 158 162 163 162 169 175 172 170 163 155 153 152 155 144 148 148 142 148 155 147 142 142 137 133 133 139 143 142 134 122 115 109 102
247 246 247 236 223 220 210 244 243 222 200 198 181 157 152 151 147 144 134 127 151 145 166 184 177 164 162 159 152 144 147 143 142 145 149 148 146 146 138 134 136 141 136 128 123 123 116 111 112
226 235 241 246 217 209 211 245 245 240 192 194 177 162 146 114 63 37 83 96 98 140 165 175 167 161 160 151 142 139 136 138 140 140 142 149 149 151 141 134 138 139 132 133 142 134 128 125 122
241 251 249 251 224 216 223 241 251 287 196 181 168 109 93 70 47 30 42 60 88 83 96 143 152 154 143 134 132 133 133 135 130 136 147 154 154 155 146 142 145 141 135 143 143 140 131 132 130
266 264 269 272 280 256 243 243 246 223 133 89 89 61 61 41 37 39 37 35 31 52 43 82 129 145 140 144 153 160 164 157 146 147 157 158 157 158 149 149 147 145 150 157 152 142 135 137 131
267 268 271 281 289 281 262 248 249 77 93 87 84 53 44 28 34 36 31 30 26 27 21 15 73 162 162 173 179 181 166 165 161 159 157 161 160 161 160 151 152 148 149 154 156 145 140 151 154
270 269 276 288 308 269 257 252 209 123 79 58 54 56 45 35 34 28 24 22 20 26 18 0 357 12 166 159 146 131 116 130 151 164 167 167 168 166 163 158 152 155 157 166 167 159 152 161 175
284 302 292 282 271 254 238 245 204 142 89 49 34 32 25 15 20 23 18 11 8 7 13 6 1 4 62 119 155 160 168 174 189 179 175 176 176 167 160 158 155 159 161 165 170 164 160 158 172
299 304 284 263 254 259 244 238 201 130 83 29 25 29 23 15 15 16 11 1 1 4 13 9 358 5 6 169 169 177 184 179 167 170 172 178 179 170 163 163 161 163 164 164 165 159 166 169 173
304 296 274 250 237 241 230 215 188 39 20 30 26 24 20 15 10 9 11 8 5 5 11 11 7 358 354 329 201 175 185 183 170 176 182 182 178 174 168 168 167 164 163 165 166 166 172 177 170
331 336 314 236 218 231 203 172 93 39 30 39 26 17 17 18 13 9 9 5 360 358 5 6 4 356 345 339 302 213 190 191 192 191 187 179 176 175 181 172 171 168 167 167 164 168 175 176 173
318 327 312 261 247 284 243 142 101 54 38 36 30 22 21 14 13 13 8 360 354 354 359 3 358 347 339 333 316 271 212 193 201 205 193 184 184 182 180 182 178 175 173 173 169 174 179 177 175
339 345 297 283 286 271 202 119 109 38 28 23 18 17 14 8 7 8 8 2 356 354 353 353 354 352 347 337 323 298 252 215 207 201 188 176 174 181 181 185 184 181 177 176 174 182 184 180 180
359 340 341 319 290 274 227 147 29 8 10 12 12 8 4 5 5 4 2 2 359 355 353 358 1 352 347 349 342 327 298 263 220 191 187 182 178 180 180 184 181 181 182 180 178 180 182 178 181
7 7 349 309 288 288 285 49 33 32 25 13 5 1 0 2 3 1 358 358 360 359 1 1 358 357 353 348 347 344 334 325 308 192 182 190 186 181 187 184 180 184 190 187 184 183 182 181 180
31 12 5 342 322 317 295 64 39 34 29 18 4 359 1 1 0 359 0 2 1 359 359 359 356 355 352 348 348 342 339 339 342 324 227 197 199 185 184 182 180 185 191 189 186 187 185 184 186
Height
1497 1499 1502 1504 1506 1506 1499 1488 1480 1479 1480 1482 1484 1485 1487 1490 1493 1503 1503 1502 1502 1503 1506 1510 1513 1516 1519 1522 1524 1526 1529 1531 1533 1535 1536 1538 1539 1541 1542 1544 1545 1546 1547 1548 1549 1550 1551 1552 1553
1497 1500 1503 1504 1504 1505 1494 1483 1481 1479 1481 1484 1486 1487 1489 1491 1494 1497 1500 1502 1502 1504 1507 1510 1513 1516 1519 1522 1524 1527 1529 1531 1533 1535 1537 1539 1540 1542 1543 1545 1546 1547 1548 1550 1551 1552 1553 1554 1555
1497 1500 1503 1500 1498 1495 1487 1477 1478 1479 1482 1485 1487 1489 1491 1493 1495 1497 1499 1502 1503 1505 1507 1510 1513 1517 1519 1522 1525 1527 1530 1532 1534 1536 1538 1539 1541 1543 1544 1546 1547 1548 1550 1551 1552 1553 1554 1555 1557
1498 1501 1500 1498 1492 1483 1479 1477 1477 1479 1483 1486 1488 1490 1492 1494 1495 1497 1499 1502 1504 1505 1508 1510 1514 1517 1520 1522 1525 1527 1530 1532 1534 1536 1538 1540 1542 1543 1545 1546 1548 1549 1551 1552 1553 1554 1556 1557 1558
1498 1499 1498 1494 1487 1481 1477 1476 1477 1480 1482 1485 1488 1489 1492 1494 1495 1497 1499 1502 1504 1506 1508 1511 1514 1517 1520 1522 1525 1527 1530 1532 1534 1536 1538 1540 1542 1544 1546 1547 1549 1550 1552 1553 1554 1556 1557 1558 1560
1497 1495 1495 1491 1482 1477 1475 1475 1477 1479 1482 1484 1487 1489 1492 1494 1495 1497 1499 1502 1504 1505 1508 1510 1514 1517 1520 1522 1525 1527 1530 1532 1534 1536 1538 1540 1542 1544 1546 1548 1549 1551 1552 1554 1555 1557 1558 1559 1561
1495 1492 1489 1483 1480 1476 1473 1474 1477 1479 1481 1484 1486 1489 1491 1493 1494 1497 1499 1502 1504 1506 1508 1510 1513 1516 1519 1522 1525 1527 1530 1532 1534 1536 1539 1541 1542 1544 1546 1548 1550 1551 1553 1554 1556 1557 1559 1560 1562
1492 1490 1484 1480 1478 1475 1472 1473 1476 1479 1481 1483 1486 1487 1489 1492 1493 1496 1499 1502 1504 1506 1507 1510 1513 1516 1519 1522 1524 1527 1529 1532 1534 1536 1538 1540 1542 1544 1546 1548 1550 1551 1553 1555 1556 1558 1560 1561 1563
1490 1491 1483 1478 1476 1473 1472 1474 1477 1479 1481 1482 1484 1486 1488 1490 1492 1495 1498 1501 1503 1505 1507 1509 1512 1515 1518 1521 1523 1526 1529 1531 1534 1536 1538 1540 1542 1544 1545 1548 1550 1551 1553 1555 1557 1559 1560 1562 1563
1487 1486 1478 1473 1472 1472 1472 1474 1476 1479 1480 1482 1484 1486 1487 1489 1491 1494 1496 1499 1501 1504 1506 1509 1511 1514 1517 1519 1522 1525 1528 1530 1532 1535 1537 1539 1541 1543 1545 1547 1549 1551 1553 1555 1557 1559 1561 1562 1563
1480 1478 1474 1473 1472 1473 1473 1475 1477 1479 1480 1481 1482 1484 1486 1488 1491 1493 1496 1498 1500 1502 1505 1508 1510 1513 1515 1518 1521 1524 1526 1529 1532 1534 1536 1538 1541 1542 1544 1546 1548 1551 1553 1555 1557 1558 1560 1562 1564
1476 1474 1474 1473 1473 1474 1474 1475 1477 1478 1480 1481 1481 1483 1485 1487 1490 1492 1495 1497 1500 1502 1504 1506 1509 1512 1514 1517 1520 1522 1525 1528 1530 1533 1535 1537 1539 1541 1543 1546 1548 1550 1552 1554 1556 1558 1560 1562 1564
1474 1473 1473 1473 1473 1474 1475 1475 1476 1478 1480 1480 1481 1482 1484 1486 1489 1492 1494 1496 1498 1500 1503 1505 1507 1510 1513 1515 1518 1521 1524 1526 1529 1531 1534 1536 1538 1540 1543 1545 1547 1549 1551 1553 1556 1558 1560 1562 1563
1472 1471 1471 1472 1472 1473 1474 1475 1476 1476 1478 1479 1479 1481 1483 1485 1488 1490 1492 1494 1496 1498 1501 1503 1505 1508 1511 1514 1516 1519 1522 1525 1527 1530 1532 1535 1537 1539 1541 1543 1546 1548 1551 1553 1555 1557 1559 1561 1563
1472 1472 1470 1469 1470 1472 1474 1475 1474 1475 1476 1477 1478 1480 1482 1484 1486 1488 1490 1492 1494 1497 1499 1501 1503 1506 1509 1511 1514 1517 1520 1523 1525 1528 1531 1533 1535 1538 1540 1542 1544 1547 1550 1552 1554 1556 1558 1560 1562
1471 1471 1472 1467 1468 1469 1475 1476 1472 1473 1474 1475 1477 1479 1481 1483 1485 1487 1489 1490 1492 1494 1496 1499 1501 1503 1506 1509 1512 1515 1518 1520 1523 1526 1528 1531 1533 1536 1538 1540 1543 1545 1548 1550 1552 1555 1557 1559 1560
1470 1471 1469 1467 1464 1466 1470 1472 1472 1471 1472 1474 1476 1478 1480 1482 1484 1485 1487 1489 1490 1492 1494 1496 1499 1501 1504 1506 1510 1512 1515 1518 1521 1523 1526 1529 1531 1534 1536 1539 1541 1543 1546 1548 1550 1553 1555 1557 1559
1473 1471 1468 1466 1463 1465 1468 1470 1471 1471 1472 1473 1476 1478 1479 1481 1483 1484 1485 1487 1488 1490 1492 1494 1496 1498 1501 1504 1507 1510 1512 1515 1518 1521 1524 1526 1529 1531 1534 1536 1538 1541 1543 1546 1548 1551 1553 1555 1557
1471 1471 1469 1466 1463 1466 1467 1469 1471 1471 1472 1474 1476 1478 1479 1481 1482 1483 1484 1485 1486 1488 1489 1491 1494 1496 1498 1501 1503 1506 1509 1512 1515 1518 1521 1523 1526 1529 1531 1533 1536 1538 1541 1543 1546 1548 1551 1553 1555
1470 1471 1469 1466 1464 1467 1468 1470 1471 1471 1473 1475 1477 1478 1480 1481 1481 1482 1483 1483 1484 1486 1487 1489 1491 1494 1496 1498 1501 1504 1506 1509 1512 1515 1518 1521 1523 1526 1528 1531 1533 1535 1538 1541 1543 1546 1548 1550 1553
1470 1471 1470 1470 1468 1466 1469 1471 1471 1472 1474 1476 1478 1479 1480 1481 1481 1482 1482 1483 1483 1484 1485 1487 1489 1491 1494 1496 1498 1501 1504 1506 1510 1512 1515 1518 1520 1523 1525 1528 1530 1533 1535 1538 1540 1543 1545 1547 1550
1473 1470 1469 1470 1474 1474 1469 1477 1472 1472 1475 1477 1479 1480 1480 1481 1481 1482 1482 1482 1482 1483 1484 1485 1487 1489 1491 1493 1495 1497 1499 1502 1505 1508 1511 1514 1517 1520 1522 1525 1527 1530 1532 1535 1537 1540 1542 1545 1547
1475 1471 1470 1469 1472 1474 1470 1475 1476 1472 1477 1479 1480 1481 1481 1481 1481 1481 1481 1482 1482 1482 1483 1484 1485 1486 1488 1491 1493 1495 1497 1499 1502 1505 1508 1511 1514 1516 1519 1522 1524 1527 1529 1532 1534 1537 1539 1541 1544
1474 1472 1468 1467 1471 1477 1468 1472 1478 1481 1481 1481 1482 1482 1482 1482 1481 1481 1481 1481 1481 1481 1481 1482 1483 1484 1486 1488 1490 1492 1494 1496 1499 1501 1504 1507 1510 1513 1515 1518 1521 1524 1526 1529 1531 1533 1536 1538 1541
1477 1479 1481 1480 1477 1472 1464 1473 1487 1486 1484 1483 1484 1483 1483 1482 1481 1481 1480 1480 1479 1479 1480 1480 1481 1482 1483 1485 1487 1489 1491 1493 1495 1498 1500 1502 1505 1508 1511 1515 1517 1520 1523 1525 1528 1530 1532 1535 1537
1482 1482 1488 1488 1479 1472 1468 1479 1491 1488 1487 1486 1485 1484 1483 1483 1481 1481 1480 1479 1479 1478 1478 1478 1479 1480 1481 1482 1484 1486 1488 1490 1492 1494 1496 1499 1501 1504 1508 1511 1514 1516 1519 1522 1524 1526 1529 1531 1533
1487 1486 1485 1487 1480 1478 1478 1486 1489 1489 1489 1488 1487 1485 1484 1483 1482 1481 1480 1479 1478 1477 1477 1477 1477 1478 1479 1480 1481 1483 1485 1487 1489 1491 1493 1495 1498 1501 1504 1506 1510 1512 1515 1518 1520 1522 1525 1527 1530
1492 1490 1490 1490 1488 1482 1479 1484 1495 1495 1494 1492 1490 1488 1486 1484 1482 1481 1480 1478 1477 1476 1476 1476 1476 1476 1477 1477 1479 1480 1482 1483 1486 1487 1489 1491 1494 1497 1500 1502 1505 1508 1511 1513 1516 1518 1521 1523 1525
1497 1497 1496 1493 1488 1489 1488 1499 1499 1499 1497 1496 1494 1492 1489 1486 1483 1481 1480 1478 1477 1475 1474 1473 1474 1474 1474 1475 1476 1477 1478 1480 1482 1484 1486 1488 1490 1493 1495 1498 1501 1503 1506 1509 1511 1514 1516 1519 1521
1501 1504 1503 1505 1498 1492 1495 1508 1502 1501 1500 1498 1496 1494 1490 1487 1484 1482 1480 1478 1476 1474 1473 1472 1472 1472 1472 1472 1473 1474 1476 1477 1478 1480 1483 1485 1487 1489 1492 1494 1497 1499 1501 1504 1507 1509 1512 1515 1517